Frenchville, ME

2:59 AM EDT on August 17, 2017 (GMT -0400)
Northern Aroostook Regional

Weather History for KFVE - April, 2014

Change the Weather History Date:

Saturday, April 19, 2014

  Actual Average Record
Temperature  
Mean Temperature 34 °F 39 °F  
Max Temperature 38 °F 47 °F 66 °F (2004)
Min Temperature 30 °F 31 °F 26 °F (2001)
Degree Days  
Heating Degree Days 31    
Month to date heating degree days 609  
Since 1 July heating degree days 9125  
Cooling Degree Days 0    
Month to date cooling degree days 0  
Year to date cooling degree days 0  
Moisture  
Dew Point 30 °F    
Average Humidity 91    
Maximum Humidity 100    
Minimum Humidity 68    
Precipitation  
Precipitation 0.04 in 0.09 in 0.36 in (2004)
Month to date precipitation 1.61 1.78  
Year to date precipitation 5.56 5.83  
Sea Level Pressure  
Sea Level Pressure 30.10 in    
Wind  
Wind Speed 11 mph (WNW)    
Max Wind Speed 26 mph    
Max Gust Speed 36 mph    
Visibility 6 miles    
Events Fog , Rain , Snow    
T = Trace of Precipitation, MM = Missing Value Source: NWS Daily Summary

Daily Weather History Graph

Daily Weather History Graph

Search for Another Location

Airport or City:

Trip Planner

Search our weather history database for the weather conditions in past years. The results will help you decide how hot, cold, wet, or windy it might be!

Date:

Astronomy

Apr. 19, 2014 Rise Set
Actual Time 5:37 AM EDT 7:27 PM EDT
Civil Twilight 5:05 AM EDT 8:00 PM EDT
Nautical Twilight 4:25 AM EDT 8:40 PM EDT
Astronomical Twilight 3:41 AM EDT 9:24 PM EDT
Moon No Moon Rise 8:43 AM EDT (4/19)
Length of Visible Light 14h 55m
Length of Day
13h 50m
Waning Gibbous, 79% of the Moon is Illuminated
Apr 19
Waning Gibbous
Apr 22
Last Quarter
Apr 29
New
May 6
First Quarter
May 14
Full

Hourly Weather History & Observations

Time (EDT) Temp. Windchill Dew Point Humidity Pressure Visibility Wind Dir Wind Speed Gust Speed Precip Events Conditions
12:53 AM 34.0 °F 26.0 °F 26.1 °F 73% 30.14 in 9.0 mi West 10.4 mph - 0.00 in Snow Light Snow
1:06 AM 33.1 °F 26.1 °F 28.9 °F 85% 30.11 in 4.0 mi West 8.1 mph - 0.00 in Snow Light Snow
1:15 AM 32.0 °F 24.8 °F 30.0 °F 92% 30.11 in 3.0 mi West 8.1 mph - 0.00 in Snow Light Snow
1:37 AM 32.0 °F 25.6 °F 30.9 °F 96% 30.10 in 2.5 mi West 6.9 mph - 0.01 in Snow Light Snow
1:46 AM 32.0 °F 26.4 °F 30.9 °F 96% 30.10 in 3.0 mi WNW 5.8 mph - 0.01 in Snow Light Snow
1:53 AM 32.0 °F 26.4 °F 30.9 °F 96% 30.12 in 2.5 mi WNW 5.8 mph - 0.01 in Snow Light Snow
2:00 AM 32.0 °F 28.7 °F 30.9 °F 96% 30.09 in 1.5 mi NW 3.5 mph - 0.00 in Snow Light Snow
2:09 AM 32.0 °F - 30.9 °F 96% 30.08 in 2.0 mi Calm Calm - 0.01 in Snow Light Snow
2:20 AM 30.9 °F - 30.9 °F 100% 30.08 in 1.8 mi Calm Calm - 0.01 in Snow Light Snow
2:32 AM 30.9 °F 27.5 °F 30.9 °F 100% 30.07 in 1.5 mi SW 3.5 mph - 0.02 in Snow Light Snow
2:34 AM 30.9 °F 27.5 °F 30.9 °F 100% 30.07 in 1.2 mi SSW 3.5 mph - 0.02 in Snow Light Snow
2:45 AM 30.9 °F 26.2 °F 30.9 °F 100% 30.06 in 0.8 mi SSE 4.6 mph - 0.02 in Snow Light Snow
2:53 AM 30.9 °F 26.2 °F 30.9 °F 100% 30.08 in 0.5 mi SE 4.6 mph - 0.02 in Fog , Snow Light Snow
3:09 AM 30.9 °F - 30.9 °F 100% 30.04 in 0.5 mi Calm Calm - 0.00 in Fog Light Freezing Fog
3:33 AM 30.9 °F 27.5 °F 30.9 °F 100% 30.04 in 0.2 mi SSE 3.5 mph - 0.00 in Fog Light Freezing Fog
3:39 AM 30.9 °F 27.5 °F 30.9 °F 100% 30.04 in 0.2 mi South 3.5 mph - 0.00 in Fog , Snow Light Snow
3:53 AM 30.9 °F - 30.9 °F 100% 30.07 in 0.2 mi Calm Calm - 0.00 in Fog Light Freezing Fog
4:53 AM 30.2 °F - 30.2 °F 100% 30.02 in 0.2 mi Calm Calm - N/A Fog Light Freezing Fog
5:16 AM 30.9 °F 27.5 °F 30.9 °F 100% 30.02 in 0.2 mi South 3.5 mph - N/A Fog Light Freezing Fog
5:53 AM 30.9 °F 27.5 °F 30.9 °F 100% 30.04 in 0.2 mi South 3.5 mph - N/A Fog Light Freezing Fog
6:41 AM 30.9 °F 26.2 °F 30.9 °F 100% 30.01 in 1.0 mi SW 4.6 mph - N/A   Overcast
6:53 AM 30.9 °F 26.2 °F 30.9 °F 100% 30.04 in 1.2 mi SSW 4.6 mph - N/A   Overcast
6:55 AM 30.9 °F 25.2 °F 30.9 °F 100% 30.01 in 2.0 mi SSW 5.8 mph - N/A   Overcast
6:58 AM 30.9 °F 25.2 °F 30.9 °F 100% 30.01 in 1.5 mi SW 5.8 mph - N/A   Overcast
7:01 AM 30.9 °F 25.2 °F 30.9 °F 100% 30.01 in 0.8 mi SSW 5.8 mph - N/A   Overcast
7:46 AM 30.9 °F 26.2 °F 30.9 °F 100% 30.02 in 0.2 mi SSW 4.6 mph - 0.00 in Fog , Snow Light Snow
7:53 AM 30.2 °F 26.7 °F 30.2 °F 100% 30.02 in 0.2 mi SSW 3.5 mph - N/A Fog , Snow Light Snow
8:24 AM 30.9 °F 27.5 °F 30.9 °F 100% 30.02 in 1.0 mi SSW 3.5 mph - 0.00 in   Overcast
8:34 AM 30.9 °F - 30.9 °F 100% 30.02 in 1.8 mi Calm Calm - 0.00 in   Overcast
8:36 AM 30.9 °F - 30.9 °F 100% 30.02 in 3.0 mi Calm Calm - 0.00 in   Overcast
8:44 AM 32.0 °F - 32.0 °F 100% 30.02 in 2.5 mi Calm Calm - 0.00 in   Overcast
8:53 AM 32.0 °F - 32.0 °F 100% 30.05 in 4.0 mi Calm Calm - 0.00 in   Overcast
9:23 AM 32.0 °F 27.5 °F 32.0 °F 100% 30.02 in 9.0 mi West 4.6 mph - N/A   Overcast
9:53 AM 33.1 °F 27.7 °F 32.0 °F 96% 30.06 in 10.0 mi West 5.8 mph - N/A   Overcast
10:11 AM 34.0 °F 28.0 °F 33.1 °F 96% 30.03 in 10.0 mi West 6.9 mph - N/A   Overcast
10:18 AM 34.0 °F 28.0 °F 33.1 °F 96% 30.03 in 10.0 mi West 6.9 mph - N/A   Overcast
10:35 AM 34.0 °F 27.2 °F 33.1 °F 96% 30.03 in 10.0 mi WNW 8.1 mph - N/A   Overcast
10:53 AM 35.1 °F 29.3 °F 34.0 °F 96% 30.06 in 10.0 mi West 6.9 mph - N/A   Overcast
11:53 AM 35.1 °F 27.9 °F 32.0 °F 89% 30.06 in 10.0 mi WNW 9.2 mph - 0.00 in Rain Light Rain
12:15 PM 36.0 °F 26.7 °F 33.1 °F 89% 30.04 in 10.0 mi WNW 15.0 mph 19.6 mph 0.01 in Rain Light Rain
12:31 PM 36.0 °F 26.7 °F 33.1 °F 89% 30.05 in 10.0 mi WNW 15.0 mph - 0.01 in Rain Light Rain
12:53 PM 36.0 °F 27.5 °F 33.1 °F 89% 30.08 in 10.0 mi NW 12.7 mph - 0.01 in Rain Light Rain
1:04 PM 36.0 °F 26.3 °F 32.0 °F 86% 30.05 in 10.0 mi WNW 16.1 mph - 0.00 in   Overcast
1:18 PM 36.0 °F 27.1 °F 32.0 °F 86% 30.05 in 10.0 mi NW 13.8 mph 25.3 mph 0.00 in Rain Light Rain
1:53 PM 36.0 °F 26.7 °F 30.9 °F 82% 30.09 in 10.0 mi NW 15.0 mph 24.2 mph 0.00 in   Overcast
2:07 PM 35.1 °F 25.2 °F 30.9 °F 85% 30.07 in 10.0 mi NW 16.1 mph 26.5 mph 0.00 in Rain Light Rain
2:53 PM 37.0 °F 27.7 °F 30.0 °F 76% 30.11 in 10.0 mi NW 16.1 mph 26.5 mph 0.00 in   Overcast
3:15 PM 37.0 °F 25.9 °F 28.9 °F 73% 30.08 in 10.0 mi NNW 23.0 mph 31.1 mph N/A   Overcast
3:50 PM 37.4 °F 27.8 °F 28.4 °F 70% 30.09 in 10.0 mi NW 17.3 mph 31.1 mph N/A   Mostly Cloudy
3:53 PM 37.9 °F 27.9 °F 28.0 °F 68% 30.12 in 10.0 mi WNW 19.6 mph 31.1 mph N/A   Mostly Cloudy
4:21 PM 37.0 °F 26.2 °F 28.0 °F 70% 30.10 in 10.0 mi NW 21.9 mph 29.9 mph N/A   Overcast
4:53 PM 36.0 °F 26.3 °F 28.9 °F 76% 30.14 in 9.0 mi NW 16.1 mph 27.6 mph 0.00 in Snow Light Snow
5:11 PM 36.0 °F 27.1 °F 28.9 °F 76% 30.13 in 10.0 mi NW 13.8 mph - 0.00 in   Overcast
5:20 PM 36.0 °F 26.7 °F 28.9 °F 76% 30.13 in 10.0 mi NNW 15.0 mph 31.1 mph 0.00 in   Overcast
5:53 PM 35.1 °F 23.3 °F 30.0 °F 82% 30.18 in 10.0 mi NW 23.0 mph 34.5 mph 0.00 in   Overcast
6:16 PM 34.0 °F 22.7 °F 30.0 °F 85% 30.17 in 7.0 mi NW 19.6 mph 32.2 mph 0.00 in Snow Light Snow
6:23 PM 34.0 °F 22.7 °F 30.0 °F 85% 30.17 in 9.0 mi NW 19.6 mph 28.8 mph 0.00 in   Overcast
6:53 PM 33.1 °F 22.2 °F 30.0 °F 89% 30.22 in 8.0 mi NW 17.3 mph 31.1 mph 0.00 in   Overcast
7:18 PM 33.1 °F 22.2 °F 30.0 °F 89% 30.20 in 6.0 mi NW 17.3 mph 26.5 mph 0.00 in Snow Light Snow
7:53 PM 33.1 °F 21.5 °F 30.0 °F 89% 30.26 in 9.0 mi NW 19.6 mph 25.3 mph 0.00 in   Overcast
8:20 PM 32.0 °F 21.6 °F 30.0 °F 92% 30.24 in 6.0 mi NW 15.0 mph - 0.00 in   Overcast
8:27 PM 32.0 °F 21.2 °F 30.0 °F 92% 30.25 in 2.5 mi NNW 16.1 mph - 0.00 in Snow Light Snow
8:34 PM 32.0 °F 22.1 °F 30.0 °F 92% 30.25 in 2.5 mi NNW 13.8 mph - 0.00 in Snow Light Snow
8:39 PM 32.0 °F 20.1 °F 28.9 °F 88% 30.25 in 7.0 mi NNW 19.6 mph - 0.00 in Snow Light Snow
8:49 PM 32.0 °F 20.5 °F 28.4 °F 87% 30.25 in 10.0 mi NNW 18.4 mph 27.6 mph 0.00 in   Overcast
8:53 PM 32.0 °F 21.6 °F 28.9 °F 88% 30.29 in 10.0 mi NNW 15.0 mph 26.5 mph 0.00 in   Overcast
9:53 PM 32.0 °F 21.6 °F 27.0 °F 82% 30.30 in 10.0 mi NNW 15.0 mph - N/A   Clear
10:53 PM 30.9 °F 20.7 °F 26.1 °F 82% 30.32 in 10.0 mi NNW 13.8 mph - N/A   Clear
11:53 PM 30.0 °F 20.5 °F 25.0 °F 82% 30.34 in 10.0 mi NNW 11.5 mph - N/A   Clear